Location: Newark
(49.1022°N, 20.8503°E)
Time: 21:07:37
(UTC+00:00)

ISS - Visible Passes

Search period start: 18 September 2020 00:00
Search period end: 28 September 2020 00:00
Orbit: 419 x 420 km, 51.6° (Epoch: 19 September)

Date Brightness Start Highest point End Pass type
(mag) Time Alt. Az. Time Alt. Az. Time Alt. Az.
18 Sep -2.9 18:04:53 10° SSW 18:07:52 30° SE 18:08:14 29° SE visible
18 Sep -0.6 19:41:08 10° WSW 19:41:14 11° WSW 19:41:14 11° WSW visible
19 Sep -2.2 17:18:05 10° S 17:20:38 20° SE 17:23:10 10° E visible
19 Sep -2.9 18:53:44 10° WSW 18:56:09 44° WSW 18:56:09 44° WSW visible
20 Sep -3.8 18:06:24 10° SW 18:09:44 63° SSE 18:10:54 36° E visible
20 Sep -0.7 19:43:18 10° W 19:43:53 14° W 19:43:53 14° W visible
21 Sep -3.3 17:19:10 10° SW 17:22:24 44° SSE 17:25:31 11° ENE visible
21 Sep -2.8 18:55:49 10° W 18:58:29 48° WNW 18:58:29 48° WNW visible
22 Sep -3.7 18:08:20 10° WSW 18:11:43 75° NNW 18:13:00 35° ENE visible
22 Sep -0.6 19:45:26 10° WNW 19:45:57 14° WNW 19:45:57 14° WNW visible
23 Sep -3.8 17:20:54 10° WSW 17:24:16 86° SSE 17:27:26 12° ENE visible
23 Sep -2.4 18:57:56 10° W 19:00:24 39° NW 19:00:24 39° NW visible
24 Sep -3.3 18:10:26 10° W 18:13:46 55° N 18:14:46 37° NE visible
24 Sep -0.4 19:47:26 10° WNW 19:47:44 12° WNW 19:47:44 12° WNW visible
25 Sep -3.4 17:22:54 10° W 17:26:15 62° N 17:29:06 14° ENE visible
25 Sep -2.0 18:59:58 10° WNW 19:02:04 33° WNW 19:02:04 33° WNW visible
26 Sep -3.3 18:12:28 10° WNW 18:15:48 54° N 18:16:22 46° NE visible
27 Sep -3.2 17:24:56 10° W 17:28:15 53° N 17:30:40 17° ENE visible
27 Sep -1.7 19:01:52 10° WNW 19:03:37 28° WNW 19:03:37 28° WNW visible
